When you browse on this site, cookies collect data to enhance your experience and personalize the content and advertising you see.
Visit our Privacy Policy to learn more. By continuing to use the site, you agree to this use of cookies and data.
  • Em Portugal
  • Lista de países
  • Para 7 dias
  • Temperatura da água
  • Mapas de satélite
  • Mapa do tempo
  • Widgets de tempo
  • user-avatar
    Iniciar Sessão

    Previsão horária em Kornilovo

    Hoje, 20 Julho, Sábado

    Tempo Temperatura Precipitação Vento Pressão Humidade
    00:00 +14°C° 0.1 mm 3 m/s 739 mmHg 97%
    01:00 +14°C° 0.1 mm 3 m/s 740 mmHg 97%
    02:00 +14°C° 0.1 mm 3 m/s 740 mmHg 98%
    03:00 +14°C° 0.2 mm 3 m/s 740 mmHg 98%
    04:00 +14°C° 0.2 mm 3 m/s 741 mmHg 98%
    05:00 +14°C° 0.2 mm 3 m/s 741 mmHg 98%
    06:00 +14°C° 0.1 mm 3 m/s 741 mmHg 97%
    07:00 +14°C° 0.1 mm 3 m/s 741 mmHg 97%
    08:00 +16°C° 0.1 mm 3 m/s 742 mmHg 96%
    09:00 +16°C° 0.2 mm 3 m/s 742 mmHg 96%
    10:00 +16°C° 0.2 mm 3 m/s 742 mmHg 96%
    11:00 +16°C° 0.2 mm 3 m/s 743 mmHg 97%
    12:00 +17°C° 0.6 mm 3 m/s 743 mmHg 94%
    13:00 +18°C° 0.6 mm 3 m/s 743 mmHg 91%
    14:00 +19°C° 0.6 mm 4 m/s 743 mmHg 89%
    15:00 +20°C° 0.4 mm 4 m/s 743 mmHg 86%
    16:00 +20°C° 0.4 mm 3 m/s 743 mmHg 83%
    17:00 +20°C° 0.4 mm 3 m/s 744 mmHg 80%
    18:00 +19°C° 0.1 mm 3 m/s 744 mmHg 84%
    19:00 +18°C° 0.1 mm 2 m/s 744 mmHg 88%
    20:00 +16°C° 0.1 mm 1 m/s 744 mmHg 91%
    21:00 +16°C° 0 mm 1 m/s 744 mmHg 93%
    22:00 +15°C° 0 mm 1 m/s 744 mmHg 94%
    23:00 +14°C° 0 mm 1 m/s 745 mmHg 95%

    Amanhã, 21 Julho, Domingo

    Tempo Temperatura Precipitação Vento Pressão Humidade
    00:00 +13°C° 0 mm 1 m/s 745 mmHg 96%
    01:00 +13°C° 0 mm 1 m/s 745 mmHg 97%
    02:00 +13°C° 0 mm 1 m/s 745 mmHg 97%
    03:00 +13°C° 0 mm 1 m/s 745 mmHg 97%
    04:00 +13°C° 0 mm 1 m/s 745 mmHg 98%
    05:00 +13°C° 0 mm 1 m/s 745 mmHg 98%
    06:00 +15°C° 0 mm 1 m/s 746 mmHg 92%
    07:00 +18°C° 0 mm 1 m/s 746 mmHg 87%
    08:00 +20°C° 0 mm 1 m/s 746 mmHg 82%
    09:00 +20°C° 0.5 mm 1 m/s 746 mmHg 81%
    10:00 +20°C° 0.5 mm 2 m/s 746 mmHg 81%
    11:00 +21°C° 0.5 mm 2 m/s 746 mmHg 81%
    12:00 +21°C° 1 mm 2 m/s 746 mmHg 80%
    13:00 +22°C° 1 mm 1 m/s 746 mmHg 80%
    14:00 +22°C° 1 mm 1 m/s 745 mmHg 80%
    15:00 +22°C° 0.7 mm 1 m/s 745 mmHg 80%
    16:00 +22°C° 0.7 mm 1 m/s 745 mmHg 80%
    17:00 +22°C° 0.7 mm 1 m/s 745 mmHg 80%
    18:00 +21°C° 0.1 mm 1 m/s 745 mmHg 84%
    19:00 +19°C° 0.1 mm 1 m/s 745 mmHg 88%
    20:00 +18°C° 0.1 mm 1 m/s 745 mmHg 92%
    21:00 +15°C° 0 mm 0 m/s 745 mmHg 92%
    22:00 +14°C° 0 mm 0 m/s 745 mmHg 93%
    23:00 +13°C° 0 mm 0 m/s 745 mmHg 93%

    Depois de amanhã, 22 Julho, Segunda-feira

    Tempo Temperatura Precipitação Vento Pressão Humidade
    00:00 +13°C° 0 mm 0 m/s 745 mmHg 93%
    01:00 +13°C° 0 mm 0 m/s 745 mmHg 93%
    02:00 +12°C° 0 mm 0 m/s 745 mmHg 94%
    03:00 +13°C° 0 mm 0 m/s 745 mmHg 94%
    04:00 +13°C° 0 mm 0 m/s 745 mmHg 94%
    05:00 +14°C° 0 mm 1 m/s 745 mmHg 94%
    06:00 +16°C° 0 mm 1 m/s 745 mmHg 88%
    07:00 +19°C° 0 mm 1 m/s 745 mmHg 83%
    08:00 +21°C° 0 mm 1 m/s 744 mmHg 77%
    09:00 +23°C° 0 mm 1 m/s 744 mmHg 69%
    10:00 +24°C° 0 mm 1 m/s 744 mmHg 61%
    11:00 +26°C° 0 mm 1 m/s 744 mmHg 53%
    12:00 +26°C° 0 mm 1 m/s 744 mmHg 50%
    13:00 +27°C° 0 mm 1 m/s 744 mmHg 48%
    14:00 +27°C° 0 mm 1 m/s 744 mmHg 45%
    15:00 +26°C° 0 mm 1 m/s 744 mmHg 50%
    16:00 +26°C° 0 mm 2 m/s 743 mmHg 54%
    17:00 +25°C° 0 mm 2 m/s 743 mmHg 59%
    18:00 +23°C° 0 mm 2 m/s 743 mmHg 66%
    19:00 +21°C° 0 mm 2 m/s 743 mmHg 73%
    20:00 +19°C° 0 mm 2 m/s 743 mmHg 80%
    21:00 +18°C° 0 mm 2 m/s 743 mmHg 81%
    22:00 +17°C° 0 mm 2 m/s 743 mmHg 81%
    23:00 +16°C° 0 mm 2 m/s 743 mmHg 82%

    23 Julho, Terça-feira

    Tempo Temperatura Precipitação Vento Pressão Humidade
    00:00 +16°C° 0 mm 2 m/s 743 mmHg 82%
    01:00 +15°C° 0 mm 2 m/s 743 mmHg 82%
    02:00 +15°C° 0 mm 2 m/s 743 mmHg 81%
    03:00 +15°C° 0 mm 2 m/s 743 mmHg 81%
    04:00 +15°C° 0 mm 2 m/s 743 mmHg 81%
    05:00 +14°C° 0 mm 2 m/s 743 mmHg 80%
    06:00 +16°C° 0 mm 2 m/s 743 mmHg 76%
    07:00 +18°C° 0 mm 2 m/s 743 mmHg 71%
    08:00 +20°C° 0 mm 2 m/s 743 mmHg 66%
    09:00 +23°C° 0 mm 2 m/s 743 mmHg 60%
    10:00 +24°C° 0 mm 2 m/s 744 mmHg 54%
    11:00 +25°C° 0 mm 2 m/s 744 mmHg 49%
    12:00 +25°C° 0 mm 2 m/s 744 mmHg 50%
    13:00 +25°C° 0 mm 2 m/s 744 mmHg 51%
    14:00 +25°C° 0 mm 2 m/s 744 mmHg 52%
    15:00 +25°C° 0 mm 3 m/s 744 mmHg 53%
    16:00 +25°C° 0 mm 3 m/s 744 mmHg 54%
    17:00 +25°C° 0 mm 3 m/s 744 mmHg 56%
    18:00 +22°C° 0 mm 3 m/s 744 mmHg 63%
    19:00 +20°C° 0 mm 3 m/s 744 mmHg 70%
    20:00 +18°C° 0 mm 2 m/s 744 mmHg 78%
    21:00 +17°C° 0 mm 2 m/s 744 mmHg 78%
    22:00 +16°C° 0 mm 2 m/s 744 mmHg 79%
    23:00 +15°C° 0 mm 2 m/s 744 mmHg 79%

    24 Julho, Quarta-feira

    Tempo Temperatura Precipitação Vento Pressão Humidade
    00:00 +15°C° 0 mm 2 m/s 745 mmHg 80%
    01:00 +14°C° 0 mm 2 m/s 745 mmHg 80%
    02:00 +14°C° 0 mm 2 m/s 745 mmHg 81%
    03:00 +14°C° 0 mm 2 m/s 745 mmHg 79%
    04:00 +14°C° 0 mm 2 m/s 745 mmHg 78%
    05:00 +14°C° 0 mm 2 m/s 745 mmHg 77%
    06:00 +16°C° 0 mm 3 m/s 745 mmHg 70%
    07:00 +18°C° 0 mm 3 m/s 745 mmHg 63%
    08:00 +20°C° 0 mm 3 m/s 745 mmHg 56%
    09:00 +21°C° 0 mm 3 m/s 745 mmHg 52%
    10:00 +22°C° 0 mm 3 m/s 745 mmHg 49%
    11:00 +24°C° 0 mm 3 m/s 745 mmHg 45%
    12:00 +24°C° 0 mm 3 m/s 745 mmHg 45%
    13:00 +25°C° 0 mm 4 m/s 745 mmHg 46%
    14:00 +26°C° 0 mm 4 m/s 745 mmHg 46%
    15:00 +25°C° 0 mm 4 m/s 745 mmHg 47%
    16:00 +25°C° 0 mm 4 m/s 745 mmHg 48%
    17:00 +25°C° 0 mm 4 m/s 745 mmHg 49%
    18:00 +22°C° 0 mm 3 m/s 745 mmHg 57%
    19:00 +20°C° 0 mm 3 m/s 745 mmHg 65%
    20:00 +18°C° 0 mm 2 m/s 746 mmHg 74%
    21:00 +17°C° 0 mm 2 m/s 746 mmHg 77%
    22:00 +16°C° 0 mm 2 m/s 746 mmHg 81%
    23:00 +15°C° 0 mm 2 m/s 746 mmHg 84%

    25 Julho, Quinta-feira

    Tempo Temperatura Precipitação Vento Pressão Humidade
    00:00 +15°C° 0 mm 2 m/s 747 mmHg 85%
    01:00 +14°C° 0 mm 2 m/s 747 mmHg 85%
    02:00 +14°C° 0 mm 2 m/s 747 mmHg 85%
    03:00 +14°C° 0 mm 2 m/s 747 mmHg 85%
    04:00 +14°C° 0 mm 2 m/s 747 mmHg 85%
    05:00 +14°C° 0 mm 2 m/s 747 mmHg 84%
    06:00 +17°C° 0 mm 2 m/s 747 mmHg 77%
    07:00 +19°C° 0 mm 2 m/s 747 mmHg 69%
    08:00 +21°C° 0 mm 3 m/s 748 mmHg 62%
    09:00 +22°C° 0 mm 3 m/s 748 mmHg 57%
    10:00 +25°C° 0 mm 3 m/s 748 mmHg 52%
    11:00 +26°C° 0 mm 4 m/s 748 mmHg 47%
    12:00 +26°C° 0 mm 4 m/s 747 mmHg 48%
    13:00 +26°C° 0 mm 4 m/s 747 mmHg 49%
    14:00 +27°C° 0 mm 4 m/s 747 mmHg 50%
    15:00 +25°C° 0.3 mm 4 m/s 747 mmHg 58%
    16:00 +24°C° 0.3 mm 3 m/s 747 mmHg 65%
    17:00 +22°C° 0.3 mm 3 m/s 747 mmHg 73%
    18:00 +21°C° 0 mm 3 m/s 747 mmHg 78%
    19:00 +20°C° 0 mm 2 m/s 747 mmHg 83%
    20:00 +18°C° 0 mm 2 m/s 747 mmHg 88%
    21:00 +18°C° 0 mm 2 m/s 747 mmHg 90%
    22:00 +17°C° 0 mm 2 m/s 747 mmHg 92%
    23:00 +16°C° 0 mm 2 m/s 747 mmHg 94%
    Mostrar mais